This is the latest recevied weather packets stored in our database for station/object KF0JJO. If no packets are shown the sender has not sent any weather packets the latest 10 day(s).
| Time | Temp. | Humidity | Pressure | Rain* | Wind** | Luminosity | Snow |
|---|---|---|---|---|---|---|---|
| 1777861269 | 16.11° C | 33% | 1035.1 hPa | 0 mm | - | 0 W/m² | - |
| 1777860968 | 16.11° C | 33% | 1035.1 hPa | 0 mm | - | 0 W/m² | - |
| 1777860664 | 16.11° C | 31% | 1035.2 hPa | 0 mm | - | 0 W/m² | - |
| 1777860361 | 16.67° C | 32% | 1035.3 hPa | 0 mm | - | 0 W/m² | - |
| 1777860057 | 16.67° C | 30% | 1035.1 hPa | 0 mm | - | 0 W/m² | - |
| 1777859754 | 16.67° C | 30% | 1035.1 hPa | 0 mm | - | 0 W/m² | - |
| 1777859450 | 16.67° C | 29% | 1035.3 hPa | 0 mm | - | 0 W/m² | - |
| 1777859146 | 17.22° C | 29% | 1035.3 hPa | 0 mm | - | 0 W/m² | - |
| 1777858844 | 17.22° C | 29% | 1035.3 hPa | 0 mm | - | 0 W/m² | - |
| 1777858541 | 17.78° C | 28% | 1035.2 hPa | 0 mm | - | 0 W/m² | - |
| 1777858238 | 17.78° C | 27% | 1035.2 hPa | 0 mm | - | 1 W/m² | - |
| 1777857935 | 17.78° C | 27% | 1035.3 hPa | 0 mm | - | 1 W/m² | - |
| 1777857633 | 18.33° C | 27% | 1035.2 hPa | 0 mm | - | 2 W/m² | - |
| 1777857330 | 18.89° C | 26% | 1035.4 hPa | 0 mm | - | 4 W/m² | - |
| 1777857026 | 18.89° C | 26% | 1035.3 hPa | 0 mm | - | 7 W/m² | - |
| 1777856722 | 18.89° C | 25% | 1035.3 hPa | 0 mm | - | 11 W/m² | - |
| 1777856418 | 19.44° C | 25% | 1035.4 hPa | 0 mm | - | 16 W/m² | - |
| 1777856115 | 19.44° C | 25% | 1035.4 hPa | 0 mm | - | 18 W/m² | - |
| 1777855812 | 19.44° C | 23% | 1035.7 hPa | 0 mm | - | 18 W/m² | - |
| 1777855510 | 20° C | 24% | 1035.3 hPa | 0 mm | - | 19 W/m² | - |
| 1777855207 | 20° C | 23% | 1035.4 hPa | 0 mm | - | 20 W/m² | - |
| 1777854902 | 20° C | 23% | 1035.5 hPa | 0 mm | - | 25 W/m² | - |
| 1777854600 | 20.56° C | 23% | 1035.4 hPa | 0 mm | - | 37 W/m² | - |
| 1777854297 | 20.56° C | 24% | 1035.3 hPa | 0 mm | - | 45 W/m² | - |
| 1777853994 | 20.56° C | 24% | 1035.4 hPa | 0 mm | - | 56 W/m² | - |
* Rain latest hour (hover to see other rain measurements)
** Current wind speed in m/s (hover to see current wind gust speed)